Showing default

KUIPER-00592, 69277

Orbit data source: Space-Track

KUIPER-00592, 69277 is a payload satellite owned by Kuiper Systems (US) in LEO that was launched on Fri, 29 May 2026 UTC via an ATLAS V 551 launch vehicle from the Air Force Eastern Test Range (AFETR). Payload-class satellites include a variety of spacecraft equipped with specific instruments for various scientific and technological missions. These include communications satellites like Starlink; space stations such as the ISS; scientific satellites like the Hubble; Earth observation satellites from companies like Planet Labs, Umbra, and HawkEye 360; GPS; miniature CubeSats for education and research; and military/defense satellites.

Loading next visibility...
Identifier
69277, 2026-118L
Orbit
LEO
Country
Flag of USUS
Related business
Manufacturer
Kuiper Systems
Mission
Operational spacecraft
Bus & Motor
KUIPER, Unknown motor
Mass
~490 kg wet, ~490 kg dry
Launch date (UTC)
2026-05-29 (3 weeks ago)
Launch vehicle
ATLAS V 551
Launch site
Air Force Eastern Test Range (AFETR)
Object type
Payload
Rocket body
Debris
Shape & HBR
Unknown
Radar Cross Section
Large (>1 m²)

Expand to show TLE details & history
Last TLE update: 19 hours ago

TLE from 19 hours ago
0 KUIPER-00592
1 69277U 26118L   26171.04629024  .00019766  00000-0  52666-3 0  9990
2 69277  51.8715  39.3448 0003485 144.9717 215.1500 15.38165452  4428
Epoch: 2026-06-20T01:06Z
TLE epoch observation values (Epoch: 2026-06-20T01:06:39.476Z)
Latitude
-0.00002°
Longitude
114.41377°
Altitude
454.244 km
Speed
7.64 km/s
True Right ascension
02h 37m 22s
True Declination
0° 00' 00"
Sunlit
Object was in daylight at epoch
Visualization orbit readout
Latitude
Unknown
Longitude
Unknown
Altitude
Unknown
Speed
Unknown
Apparent Right ascension
Unknown
Apparent Declination
Unknown
Sunlit
N/A
Visualization observer readout
Local Sidereal Time
07:13:44
Azimuth
Unknown
Elevation
Unknown
Doppler factor
Unknown
Orbital elements
Apogee altitude
454.382 km
Perigee altitude
449.621 km
Semi-major axis
6,830.139 km
Eccentricity
0.00035
Inclination
51.8715°
RAAN
39.3448°
Arg. of periapsis
144.9717°
True anomaly
215.12702°
Mean anomaly
215.15°
Eccentric anomaly
215.13851°
Mean motion
3.84502 °/min
Orbital period
93.63 mins
BSTAR
0.00052666
Loading maneuver chart data...
Computing Atmospheric mass density...
Loading historical data...
Loading historical data...
Loading historical data...
Loading historical data...
Loading historical data...
Loading historical data...
Loading historical data...

Documentation

Showing up to 5 results
|